Flag for Germany Weather past 2 weeks in Bad Mergentheim, Baden-Württemberg, Germany

Now
32 °F

Light snow. More clouds than sun.


Feels Like: 22 °F
Forecast: 33 / 37 °F
Wind: 15 mph from Southwest

Location: Niederstetten

Current Time: Jan 29, 2015 at 2:10:56 PM

Latest Report: Jan 29, 2015 at 2:02 PM


Visibility: 2 mi

Pressure: 29.24 "Hg

Humidity: 93%

Dew point: 30 °F

Location of Bad MergentheimLocation

Historic Weather in Bad Mergentheim — Graph

°F

Bad Mergentheim temperature yesterday

Maximum temperature yesterday: 36 °F (at 2:20 PM)
Minimum temperature yesterday: 32 °F (at 12:20 AM)
Average temperature yesterday: 33 °F

Past Weeks' High & Low Weather Summary

 TemperatureHumidityPressure
High45 °F (Jan 15, 12:20 PM)100% (Jan 16, 10:20 PM)30.36 "Hg (Jan 16, 10:20 PM)
Low23 °F (Jan 21, 12:20 AM)61% (Jan 15, 10:20 PM)29.33 "Hg (Jan 29, 12:20 PM)
Average33 °F92%29.95 "Hg
* Reported Jan 14 12:20 PM — Jan 29 12:20 PM, Bad Mergentheim, Weather by CustomWeather, © 2014

Note: Actual official high and low records may vary slightly from our data, if they occured in-between our weather recording intervals... More about our weather records

Advertising

Bad Mergentheim weather history for previous 24 hours

 ConditionsComfort  
Time TempWeatherWind HumidityBarometerVisibility
12:20 PM
Jan 29
34 °FPartly sunny.15 mph81%29.33 "HgN/A
11:20 AM34 °FPartly sunny.16 mph81%29.36 "HgN/A
10:20 AM32 °FPartly sunny.16 mph80%29.39 "HgN/A
9:20 AM32 °FPartly sunny.14 mph80%29.42 "HgN/A
8:20 AM30 °FScattered clouds.17 mph93%29.45 "HgN/A
7:20 AM30 °FPartly cloudy.16 mph93%29.47 "HgN/A
6:20 AM32 °FPassing clouds.21 mph87%29.47 "HgN/A
5:20 AM32 °FPassing clouds.16 mph87%29.47 "HgN/A
4:20 AM32 °FPassing clouds.16 mph93%29.47 "HgN/A
3:50 AM32 °FPassing clouds.17 mph93%29.50 "HgN/A
3:20 AM32 °FPassing clouds.13 mph87%29.50 "HgN/A
2:20 AM32 °FPartly cloudy.13 mph93%29.50 "HgN/A
1:20 AM32 °FPassing clouds.12 mph87%29.50 "HgN/A
12:20 AM34 °FLight rain. Low clouds.16 mph93%29.47 "Hg5 mi
11:50 PM
Jan 28
36 °FRain. Fog.25 mph93%29.47 "Hg2 mi
11:20 PM36 °FLight rain. Low clouds.21 mph93%29.47 "Hg4 mi
10:20 PM34 °FLight rain. Low clouds.18 mph100%29.47 "Hg3 mi
9:20 PM34 °FLight snow. Mostly cloudy.17 mph93%29.50 "Hg2 mi
8:20 PM36 °FLight rain. Overcast.20 mph81%29.53 "Hg6 mi
7:20 PM36 °FMostly cloudy.21 mph81%29.59 "HgN/A
6:20 PM36 °FPartly cloudy.20 mph81%29.65 "HgN/A
5:20 PM36 °FMostly cloudy.17 mph81%29.68 "HgN/A
4:20 PM36 °FMostly cloudy.15 mph81%29.77 "HgN/A
3:20 PM36 °FOvercast.16 mph81%29.80 "HgN/A
2:20 PM36 °FLow clouds.13 mph81%29.83 "HgN/A
Weather by CustomWeather, © 2014

See weather overviewHow to use our weather pages